Hourly Data Report for September 28, 2017

All times are specified in Local Standard Time (LST). Add 1 hour to adjust for Daylight Saving Time where and when it is observed.

BUCTOUCHE CDA CS
NEW BRUNSWICK

46°25'49.006" N
64°46'05.009" W
35.90 m
8100593
71666
ABT

Download Data

Hourly Data (September 2017)
Hourly Data Report for September 28, 2017
Temp Definition
°C
Dew Point Temp Definition
°C
Rel Hum Definition
%
Wind Dir Definition
10's deg

Wind Spd Definition
km/h
Visibility Definition
km
Stn Press Definition
kPa
Hmdx Definition


Wind Chill Definition


Weather Definition


TIME
00:00 21.0 18.0 83 23 18   99.96 27   LegendNANA
01:00 20.3 17.9 86 21 10   99.90 26   LegendNANA
02:00 20.2 17.8 86 19 9   99.85 26   LegendNANA
03:00 19.9 17.7 87 24 6   99.79     LegendNANA
04:00 19.4 17.7 90 24 5   99.75     LegendNANA
05:00 18.7 16.4 87 32 10   99.78     LegendNANA
06:00 18.0 13.4 75 27 14   99.76     LegendNANA
07:00 16.8 14.6 87 22 7   99.63     LegendNANA
08:00 17.5 15.0 86 24 9   99.64     LegendNANA
09:00 17.8 14.7 82 28 12   99.73     LegendNANA
10:00 17.0 11.7 71 33 11   99.74     LegendNANA
11:00 18.2 12.6 70 25 8   99.80     LegendNANA
12:00 18.2 10.0 59 27 19   99.80     LegendNANA
13:00 18.6 9.7 56 27 17   99.75     LegendNANA
14:00 18.9 10.4 58 28 11   99.73     LegendNANA
15:00 19.1 10.6 58 27 18   99.78     LegendNANA
16:00 17.8 8.3 54 27 16   99.81     LegendNANA
17:00 16.9 6.9 52 29 18   99.89     LegendNANA
18:00 14.4 5.8 56 29 20   99.92     LegendNANA
19:00 12.3 5.5 63 28 11   99.96     LegendNANA
20:00 11.4 5.6 68 29 13   99.99     LegendNANA
21:00 10.6 5.2 69 28 10   100.01     LegendNANA
22:00 9.9 4.9 71 28 9   100.01     LegendNANA
23:00 9.8 4.8 71 29 15   100.06     LegendNANA

Notes on Data Quality.

Legend

  • E = Estimated
  • M = Missing
  • NA = Not Available
  • ‡ = Partner data that is not subject to review by the National Climate Archives
Date modified: